NOAA 16 DEB, 41713

Orbit data source: Space-Track

NOAA 16 DEB, 41713 is space debris in SSO originally from a launch on Thu, 21 Sep 2000 UTC launched from the Air Force Western Test Range (AFWTR). Debris objects in space refer to the collection of defunct objects orbiting the Earth. Examples of debris include non-operational satellites, rocket bodies, and fragments generated from explosions, collisions, or faulty payload assembly.

Loading next visibility...
Identifier
41713, 2000-055PT
Orbit
SSO
Country
Flag of USUS
Related business
Manufacturer
Unknown
Mission
Spacecraft
Bus & Motor
Unknown
Mass
Unknown
Launch date (UTC)
Icon of a cake. It is the launch day of the satellite!2000-09-21 (26 years ago)
Launch vehicle
Unknown
Launch site
Air Force Western Test Range (AFWTR)
Object type
Payload
Rocket body
Debris
Shape & HBR
Unknown shape, 0.1 m
Radar Cross Section
Small (<0.1 m²)

Expand to show TLE details & history
Last TLE update: 11 hours ago

TLE from 11 hours ago
0 NOAA 16 DEB
1 41713U 00055PT  26264.18867901  .00001882  00000-0  10092-2 0  9999
2 41713  98.8919 244.9381 0090711 214.9935 144.5255 14.12170990527750
Epoch: 2026-09-21T04:31Z
TLE epoch observation values (Epoch: 2026-09-21T04:31:41.866Z)
Latitude
0.00004°
Longitude
176.94156°
Altitude
908.469 km
Speed
7.37 km/s
True Right ascension
16h 19m 45s
True Declination
0° 00' 00"
Sunlit
Object was in daylight at epoch
Visualization orbit readout
Latitude
Unknown
Longitude
Unknown
Altitude
Unknown
Speed
Unknown
Apparent Right ascension
Unknown
Apparent Declination
Unknown
Sunlit
N/A
Visualization observer readout
Local Sidereal Time
08:59:17
Azimuth
Unknown
Elevation
Unknown
Doppler factor
Unknown
Orbital elements
Apogee altitude
914.689 km
Perigee altitude
783.57 km
Semi-major axis
7,227.267 km
Eccentricity
0.00907
Inclination
98.8919°
RAAN
244.9381°
Arg. of periapsis
214.9935°
True anomaly
145.12322°
Mean anomaly
144.5255°
Eccentric anomaly
144.82491°
Mean motion
3.5325 °/min
Orbital period
101.91 mins
BSTAR
0.0010092
Loading maneuver chart data...
Computing Atmospheric mass density...

Documentation

Showing up to 5 results
|